The Dalles, WA

12:16 AM PST on December 06, 2019 (GMT -0800)
Columbia Gorge Regional-The Dalles

Weather History for KDLS - June, 2019

Change the Weather History Date:

Friday, June 7, 2019

  Actual Average Record
Temperature  
Mean Temperature 57 °F -  
Max Temperature 66 °F 76 °F 99 °F (2003)
Min Temperature 48 °F 55 °F 43 °F (2005)
Degree Days  
Heating Degree Days 8    
Growing Degree Days 7 (Base 50)    
Moisture  
Dew Point 40 °F    
Average Humidity 56    
Maximum Humidity 74    
Minimum Humidity 38    
Precipitation  
Precipitation 0.00 in - - ()
Sea Level Pressure  
Sea Level Pressure 30.10 in    
Wind  
Wind Speed 14 mph (WNW)    
Max Wind Speed 25 mph    
Max Gust Speed 38 mph    
Visibility 10 miles    
Events      
Averages and records for this station are not official NWS values.
T = Trace of Precipitation, MM = Missing Value Source: NWS Daily Summary

Daily Weather History Graph

Daily Weather History Graph

Search for Another Location

Airport or City:

Astronomy

Jun. 07, 2019 Rise Set
Actual Time 5:16 AM PDT 8:51 PM PDT
Civil Twilight 4:38 AM PDT 9:28 PM PDT
Nautical Twilight 3:48 AM PDT 10:18 PM PDT
Astronomical Twilight 2:42 AM PDT 11:25 PM PDT
Moon 9:43 AM PDT (6/7) 12:09 AM PDT (6/7)
Length of Visible Light 16h 50m
Length of Day
15h 34m
Waxing Crescent, 23% of the Moon is Illuminated
Jun 7
Waxing Crescent
Jun 9
First Quarter
Jun 17
Full
Jun 25
Last Quarter
Jul 2
New

Hourly Weather History & Observations

Time (PDT) Temp. Dew Point Humidity Pressure Visibility Wind Dir Wind Speed Gust Speed Precip Events Conditions
12:53 AM 50.0 °F 42.1 °F 74% 30.03 in 10.0 mi West 11.5 mph - N/A   Clear
1:53 AM 48.9 °F 41.0 °F 74% 30.03 in 10.0 mi WNW 9.2 mph - N/A   Partly Cloudy
2:53 AM 50.0 °F 39.9 °F 68% 30.04 in 10.0 mi WSW 5.8 mph - N/A   Partly Cloudy
3:53 AM 48.9 °F 39.9 °F 71% 30.04 in 10.0 mi Calm Calm - N/A   Mostly Cloudy
4:53 AM 50.0 °F 42.1 °F 74% 30.05 in 10.0 mi WNW 9.2 mph - N/A   Overcast
5:53 AM 48.9 °F 41.0 °F 74% 30.06 in 10.0 mi WSW 5.8 mph - N/A   Partly Cloudy
6:53 AM 53.1 °F 39.9 °F 61% 30.06 in 10.0 mi West 13.8 mph 18.4 mph N/A   Clear
7:53 AM 55.9 °F 39.9 °F 55% 30.07 in 10.0 mi WNW 15.0 mph 26.5 mph N/A   Clear
8:53 AM 57.9 °F 39.9 °F 51% 30.08 in 10.0 mi WNW 13.8 mph 26.5 mph N/A   Clear
9:53 AM 57.9 °F 39.0 °F 49% 30.07 in 10.0 mi WNW 23.0 mph 27.6 mph N/A   Scattered Clouds
10:53 AM 59.0 °F 41.0 °F 51% 30.07 in 10.0 mi NW 18.4 mph 26.5 mph N/A   Mostly Cloudy
11:53 AM 63.0 °F 39.9 °F 43% 30.07 in 10.0 mi West 21.9 mph 28.8 mph N/A   Clear
12:53 PM 64.0 °F 39.0 °F 40% 30.08 in 10.0 mi WNW 23.0 mph 33.4 mph N/A   Partly Cloudy
1:53 PM 66.0 °F 39.9 °F 38% 30.08 in 10.0 mi WNW 20.7 mph 32.2 mph N/A   Partly Cloudy
2:53 PM 64.0 °F 37.9 °F 38% 30.09 in 10.0 mi WNW 25.3 mph 38.0 mph N/A   Clear
3:53 PM 62.1 °F 39.0 °F 43% 30.11 in 10.0 mi West 23.0 mph 38.0 mph N/A   Partly Cloudy
4:53 PM 61.0 °F 39.0 °F 44% 30.12 in 10.0 mi West 23.0 mph 34.5 mph N/A   Clear
5:53 PM 62.1 °F 39.9 °F 44% 30.13 in 10.0 mi WNW 25.3 mph 29.9 mph N/A   Clear
6:53 PM 59.0 °F 42.1 °F 53% 30.15 in 10.0 mi NW 17.3 mph 24.2 mph N/A   Partly Cloudy
7:53 PM 55.0 °F 41.0 °F 59% 30.17 in 10.0 mi WNW 16.1 mph 27.6 mph N/A   Clear
8:53 PM 54.0 °F 42.1 °F 64% 30.19 in 10.0 mi WNW 21.9 mph 28.8 mph N/A   Clear
9:53 PM 54.0 °F 39.9 °F 59% 30.21 in 10.0 mi WNW 19.6 mph 28.8 mph N/A   Scattered Clouds
10:53 PM 54.0 °F 39.9 °F 59% 30.23 in 10.0 mi West 12.7 mph - N/A   Partly Cloudy
11:53 PM 53.1 °F 39.9 °F 61% 30.24 in 10.0 mi WNW 13.8 mph - N/A   Clear